This is the latest recevied weather packets stored in our database for station/object ON6OO-13. If no packets are shown the sender has not sent any weather packets the latest 1 day(s).
| Time | Temp. | Humidity | Pressure | Rain* | Wind** | Luminosity | Snow |
|---|---|---|---|---|---|---|---|
| 1836274811 | 19.44° C | 79% | - | 0 mm | 0.89 m/s, 155° | - | - |
| 1836273899 | 20° C | 79% | - | 0 mm | 1.34 m/s, 151° | - | - |
| 1778048196 | 8.33° C | 98% | 1008.1 hPa | 0 mm | 3.13 m/s, 346° | - | - |
| 1778047284 | 8.33° C | 98% | 1008.1 hPa | 0 mm | 3.58 m/s, 346° | - | - |
| 1778046372 | 8.33° C | 98% | 1008.1 hPa | 0 mm | 2.68 m/s, 314° | - | - |
| 1778045460 | 8.33° C | 98% | 1008.1 hPa | 0 mm | 0.89 m/s, 349° | - | - |
| 1778044548 | 8.33° C | 98% | 1008.1 hPa | 0 mm | 2.68 m/s, 332° | - | - |
| 1778043636 | 8.33° C | 98% | 1008.1 hPa | 0 mm | 2.68 m/s, 343° | - | - |
| 1778042724 | 8.33° C | 97% | 1008.1 hPa | 0 mm | 1.34 m/s, 349° | - | - |
| 1778041812 | 8.33° C | 97% | 1008.1 hPa | 0 mm | 3.13 m/s, 333° | - | - |
| 1778040900 | 8.33° C | 97% | 1008.1 hPa | 0 mm | 2.68 m/s, 39° | - | - |
| 1778039987 | 8.33° C | 97% | 1008.4 hPa | 0 mm | 2.24 m/s, 349° | - | - |
| 1778039075 | 8.33° C | 97% | 1007.7 hPa | 0 mm | 2.68 m/s, 359° | - | - |
| 1778038164 | 8.33° C | 97% | 1007.7 hPa | 0 mm | 2.68 m/s, 352° | - | - |
| 1778037252 | 8.33° C | 96% | 1008.1 hPa | 0 mm | 1.79 m/s, 349° | - | - |
| 1778036339 | 8.33° C | 96% | 1008.4 hPa | 0 mm | 0.89 m/s, 324° | - | - |
| 1778035427 | 8.33° C | 95% | 1008.4 hPa | 0 mm | 1.34 m/s, 342° | - | - |
| 1778034515 | 8.33° C | 95% | 1008.4 hPa | 0 mm | 4.47 m/s, 327° | - | - |
| 1778033603 | 8.33° C | 94% | 1008.4 hPa | 0 mm | 2.68 m/s, 337° | - | - |
| 1778032691 | 8.33° C | 94% | 1008.4 hPa | 0 mm | 2.24 m/s, 348° | - | - |
| 1778031779 | 8.33° C | 94% | 1008.4 hPa | 0 mm | 2.24 m/s, 328° | - | - |
| 1778030867 | 8.33° C | 94% | 1008.4 hPa | 0 mm | 2.68 m/s, 351° | - | - |
| 1778029956 | 8.89° C | 94% | 1008.4 hPa | 0 mm | 0.89 m/s, 340° | - | - |
| 1778029043 | 8.89° C | 95% | 1008.4 hPa | 0 mm | 1.79 m/s, 331° | - | - |
| 1778028131 | 8.89° C | 95% | 1008.8 hPa | 0 mm | 0.45 m/s, 318° | - | - |
* Rain latest hour (hover to see other rain measurements)
** Current wind speed in m/s (hover to see current wind gust speed)